Regional Weather Roundup
Issued by NWS

Home | Current Version | Previous Version | Graphics & Text | Print | Product List | Glossary Off
Versions: 1 2 3 4 5 6 7 8 9 10 11 12 13 14 15 16 17 18 19 20 21 22 23 24 25 26 27 28 29 30 31 32 33 34 35 36 37 38 39 40 41 42 43 44 45 46 47 48 49 50

000
ASUS43 KMKX 210011
RWRWI

WISCONSIN REGIONAL WEATHER ROUNDUP
NATIONAL WEATHER SERVICE MILWAUKEE/SULLIVAN WI
700 PM CDT THU JUL 20 2017

NOTE: "FAIR" INDICATES FEW OR NO CLOUDS BELOW 12,000 FEET WITH NO
SIGNIFICANT WEATHER AND/OR OBSTRUCTIONS TO VISIBILITY.

WIZ001-002-006>008-014>016-023>028-210100-
NORTHWEST WISCONSIN

CITY           SKY/WX    TMP DP  RH WIND       PRES   REMARKS
SUPERIOR ARPT  NOT AVBL
ASHLAND        SUNNY     81  66  60 SW6       29.94F HX  83
6HR MIN TEMP:  81; 6HR MAX TEMP:  84;

HAYWARD        SUNNY     82  60  47 SW7       29.99S HX  82
6HR MIN TEMP:  81; 6HR MAX TEMP:  85;

SIREN          SUNNY     83  62  48 W5        29.98F HX  83
6HR MIN TEMP:  81; 6HR MAX TEMP:  85;

CUMBERLAND     SUNNY     79  64  61 W8        30.00F HX  81
RICE LAKE      SUNNY     82  66  57 W6        30.01F HX  84
6HR MIN TEMP:  80; 6HR MAX TEMP:  85;

CHETEK         SUNNY     82  67  59 W6        29.99F HX  85
6HR MIN TEMP:  82; 6HR MAX TEMP:  85;

LADYSMITH      SUNNY     82  63  52 NW5       30.01F HX  83
6HR MIN TEMP:  81; 6HR MAX TEMP:  86;

EAU CLAIRE     SUNNY     83  67  58 NW7       29.98F HX  85
6HR MIN TEMP:  80; 6HR MAX TEMP:  86;

MENOMONIE      SUNNY     82  68  61 W5        29.99F HX  85
6HR MIN TEMP:  80; 6HR MAX TEMP:  85;

NEW RICHMOND   SUNNY     83  64  52 CALM      29.99F HX  85
6HR MIN TEMP:  79; 6HR MAX TEMP:  84;

OSCEOLA        SUNNY     83  66  56 W3        30.01F HX  85
6HR MIN TEMP:  80; 6HR MAX TEMP:  85;

$$

WIZ003>005-009-010-017-018-210100-
NORTH CENTRAL WISCONSIN

CITY           SKY/WX    TMP DP  RH WIND       PRES   REMARKS
MANITOWISH WTR SUNNY     79  59  50 W5        30.00S HX  80
6HR MIN TEMP:  79; 6HR MAX TEMP:  83;

ARBOR VITAE    SUNNY     80  57  45 NW3       29.99S HX  80
6HR MIN TEMP:  80; 6HR MAX TEMP:  85;

WOODRUFF       SUNNY     80  57  45 NW3       29.99S HX  80
6HR MIN TEMP:  80; 6HR MAX TEMP:  85;

RHINELANDER    SUNNY     82  59  45 W5        30.00R HX  82
6HR MIN TEMP:  80; 6HR MAX TEMP:  86;

EAGLE RIVER    SUNNY     79  53  40 NW7       29.99S
6HR MIN TEMP:  79; 6HR MAX TEMP:  85;

LAND O LAKES   SUNNY     79  51  38 NW6       30.01S
6HR MIN TEMP:  79; 6HR MAX TEMP:  84;

PHILLIPS       SUNNY     81  62  53 W3        29.99F HX  82
6HR MIN TEMP:  78; 6HR MAX TEMP:  83;

TOMAHAWK         N/A     80  60  51 W6        30.00S HX  81
6HR MIN TEMP:  79; 6HR MAX TEMP:  83;

MEDFORD        SUNNY     80  64  58 W6        30.00F HX  82
6HR MIN TEMP:  79; 6HR MAX TEMP:  82;

MERRILL        SUNNY     82  64  54 W7        29.99S HX  84
6HR MIN TEMP:  80; 6HR MAX TEMP:  84;

$$

WIZ029-030-035-036-043>047-210100-
CENTRAL WISCONSIN

CITY           SKY/WX    TMP DP  RH WIND       PRES   REMARKS
WAUSAU         SUNNY     83  61  47 NW9       29.97R HX  83
6HR MIN TEMP:  78; 6HR MAX TEMP:  86;

MOSINEE        MOSUNNY   81  64  57 W7        30.00R HX  82
MARSHFIELD     MOSUNNY   81  64  56 NW9       29.99S HX  82
6HR MIN TEMP:  80; 6HR MAX TEMP:  85;

STEVENS POINT  MOSUNNY   80  64  58 W6        29.99S HX  82
6HR MIN TEMP:  78; 6HR MAX TEMP:  84;

WAUPACA        PTSUNNY   85  64  49 NW6       29.96S HX  86
6HR MIN TEMP:  84; 6HR MAX TEMP:  88;

WAUTOMA        CLOUDY    81  72  74 NW5       29.96F HX  85
6HR MIN TEMP:  81; 6HR MAX TEMP:  86;

WISC RAPIDS    MOSUNNY   83  67  58 NW6       29.99S HX  85
6HR MIN TEMP:  81; 6HR MAX TEMP:  88;

CAMP DOUGLAS   CLOUDY    77  73  86 NW3       29.98S
6HR MIN TEMP:  77; 6HR MAX TEMP:  85; 6HR PCP: TRACE;

$$

WIZ011>013-019>022-031-037>040-048>050-210100-
NORTHEAST WISCONSIN

CITY           SKY/WX    TMP DP  RH WIND       PRES   REMARKS
ANTIGO         SUNNY     81  63  55 W8        29.99S HX  82
6HR MIN TEMP:  79; 6HR MAX TEMP:  83;

SHAWANO        SUNNY     87  60  41 NW3       29.94S HX  86
6HR MIN TEMP:  82; 6HR MAX TEMP:  89;

OCONTO         SUNNY     84  65  52 W3        29.92R HX  86
6HR MIN TEMP:  81; 6HR MAX TEMP:  87;

STURGEON BAY     N/A     83  67  58 SW5       29.93S HX  85
6HR MIN TEMP:  78; 6HR MAX TEMP:  84;

GREEN BAY      SUNNY     85  70  60 W3        29.94R HX  89
6HR MIN TEMP:  82; 6HR MAX TEMP:  87;

MANITOWOC      SUNNY     76  68  76 SE5       29.95R
6HR MIN TEMP:  76; 6HR MAX TEMP:  86;

APPLETON       PTSUNNY   82  61  47 NW5       29.94S HX  83
CLINTONVILLE   SUNNY     84  59  42 NW6       29.95R HX  84
OSHKOSH        PTSUNNY   81  69  67 W5        29.95S HX  84
6HR MIN TEMP:  81; 6HR MAX TEMP:  86;

$$

WIZ032>034-041-042-053>061-210100-
SOUTHWEST WISCONSIN

CITY           SKY/WX    TMP DP  RH WIND       PRES   REMARKS
LA CROSSE      CLOUDY    86  73  65 N9        29.96F HX  93
6HR MIN TEMP:  84; 6HR MAX TEMP:  88;

SPARTA         MOSUNNY   80  71  74 CALM      29.99S HX  83
6HR MIN TEMP:  80; 6HR MAX TEMP:  84;

VIROQUA        CLOUDY    78  73  85 N6        30.00S HX  80
6HR MIN TEMP:  78; 6HR MAX TEMP:  85;

BOSCOBEL       CLOUDY    84  72  67 CALM      29.96S HX  89
6HR MIN TEMP:  84; 6HR MAX TEMP:  90;

PRAIRIE DU CHI CLOUDY    84  70  61 CALM      29.96S HX  88
6HR MIN TEMP:  82; 6HR MAX TEMP:  86;

PLATTEVILLE    MOSUNNY   84  76  77 N3        29.99S HX  93
6HR MIN TEMP:  80; 6HR MAX TEMP:  85;

$$

WIZ056-057-062-063-064-067-068-210100-
SOUTH CENTRAL WISCONSIN

CITY           SKY/WX    TMP DP  RH WIND       PRES   REMARKS
REEDSBURG      CLOUDY    80  72  75 NW5       29.97R HX  83
6HR MIN TEMP:  80; 6HR MAX TEMP:  86;

BARABOO/DELLS  CLOUDY    81  69  66 NW3       29.97S HX  84
6HR MIN TEMP:  81; 6HR MAX TEMP:  89;

LONE ROCK      MOSUNNY   83  72  69 N3        29.96S HX  88
6HR MIN TEMP:  83; 6HR MAX TEMP:  89;

MINERAL POINT  MOSUNNY   84  73  70 CALM      29.99S HX  91
MADISON        CLOUDY    83  73  72 NW3       29.96S HX  89
6HR MIN TEMP:  82; 6HR MAX TEMP:  87;

MIDDLETON      CLOUDY    83  71  66 CALM      29.98R HX  88
6HR MIN TEMP:  83; 6HR MAX TEMP:  88;

WATERTOWN      MOSUNNY   82  72  72 NW5       29.96S HX  87
6HR MIN TEMP:  80; 6HR MAX TEMP:  85;

MONROE         MOSUNNY   82  72  69 CALM      29.98S HX  87
JANESVILLE     MOSUNNY   82  72  69 NW6       29.96  HX  87
$$

WIZ051-052-058>065-066-070>072-210100-
SOUTHEAST WISCONSIN

CITY           SKY/WX    TMP DP  RH WIND       PRES   REMARKS
MILWAUKEE      PTSUNNY   78  70  76 SE6       29.96S HX  80
6HR MIN TEMP:  77; 6HR MAX TEMP:  83;

WAUKESHA       MOSUNNY   81  70  69 W6        29.97F HX  84
MILWAUKEE/TIMM SUNNY     81  66  61 SE6       29.96S HX  83
RACINE         SUNNY     77  69  76 S6        29.98R
6HR MIN TEMP:  77; 6HR MAX TEMP:  84;

KENOSHA        SUNNY     78  69  73 SE7       29.97R HX  80
6HR MIN TEMP:  78; 6HR MAX TEMP:  87;

FOND DU LAC    CLOUDY    82  67  60 NW6       29.96R HX  84
6HR MIN TEMP:  81; 6HR MAX TEMP:  87;

SHEBOYGAN      SUNNY     81  72  74 NW3       29.94S HX  85
6HR MIN TEMP:  81; 6HR MAX TEMP:  86;

WEST BEND      MOSUNNY   81  70  69 N5        29.96R HX  84
JUNEAU         CLOUDY    81  71  72 N3        29.97S HX  84
6HR MIN TEMP:  79; 6HR MAX TEMP:  84;

$$

LSZ147-162-210100-
LAKE SUPERIOR

STATION/POSITION TIME  TEMP    WIND        PRES    WAVE
                       AIR SEA DIR/SP/G            HT/PER
                 (UTC) (F)     (DEG/KT/KT) (MB)    (FT/S)
W MID LAKE BUOY  2250   57 48  230/ 10/ 12 1013.5F   1/ 3
DEVILS ISLAND    0000   75     230/ 11/ 13 1012.8F
SAXON HARBOR     2330   84     240/  2/  4 1013.9S
$$

LMZ867-665-643>646-210100-
LAKE MICHIGAN

STATION/POSITION TIME  TEMP    WIND        PRES    WAVE
                       AIR SEA DIR/SP/G            HT/PER
                 (UTC) (F)     (DEG/KT/KT) (MB)    (FT/S)
CHAMBERS ISLAND  2340   81     150/  2/  4 1012.2S
S GREEN BAY BUOY 0000   78 74  200/  6/  8 1013.3
N MID



USA.gov is the U.S. government's official web portal to all federal, state and local government web resources and services.